Ellensburg, WA

7:11 AM PST on February 25, 2017 (GMT -0800)
Bowers

Weather History for KELN - August, 2014

Change the Weather History Date:

Tuesday, August 5, 2014

  Actual Average (KYKM) Record (KYKM)
Temperature  
Mean Temperature 82 °F -  
Max Temperature 95 °F 89 °F 102 °F (1990)
Min Temperature 70 °F 54 °F 40 °F (1969)
Cooling Degree Days 17    
Growing Degree Days 32 (Base 50)    
Moisture  
Dew Point 45 °F    
Average Humidity 30    
Maximum Humidity 42    
Minimum Humidity 18    
Precipitation  
Precipitation 0.00 in - - ()
Sea Level Pressure  
Sea Level Pressure 29.88 in    
Wind  
Wind Speed 20 mph (NW)    
Max Wind Speed 32 mph    
Max Gust Speed 41 mph    
Visibility 10 miles    
Events      
Averages and records for this station are not official NWS values.
T = Trace of Precipitation, MM = Missing Value Source: NWS Daily Summary

Daily Weather History Graph

Daily Weather History Graph

Search for Another Location

Airport or City:

Trip Planner

Search our weather history database for the weather conditions in past years. The results will help you decide how hot, cold, wet, or windy it might be!

Date:

Astronomy

Aug. 05, 2014 Rise Set
Actual Time 5:46 AM PDT 8:28 PM PDT
Civil Twilight 5:11 AM PDT 9:03 PM PDT
Nautical Twilight 4:27 AM PDT 9:47 PM PDT
Astronomical Twilight 3:35 AM PDT 10:38 PM PDT
Moon 3:51 PM PDT (8/5) 12:38 AM PDT (8/5)
Length of Visible Light 15h 51m
Length of Day
14h 42m
Waxing Gibbous, 69% of the Moon is Illuminated
Aug 5
Waxing Gibbous
Aug 10
Full
Aug 17
Last Quarter
Aug 25
New
Sep 2
First Quarter

Hourly Weather History & Observations

Time (PDT) Temp. Dew Point Humidity Pressure Visibility Wind Dir Wind Speed Gust Speed Precip Events Conditions
12:53 AM 75.0 °F 46.9 °F 37% 29.86 in 10.0 mi NW 17.3 mph - N/A   Clear
1:53 AM 73.0 °F 45.0 °F 37% 29.86 in 10.0 mi NW 16.1 mph - N/A   Clear
2:53 AM 73.9 °F 42.1 °F 32% 29.86 in 10.0 mi NNW 16.1 mph - N/A   Clear
3:53 AM 73.0 °F 43.0 °F 34% 29.86 in 10.0 mi NW 17.3 mph - N/A   Clear
4:53 AM 71.1 °F 43.0 °F 36% 29.87 in 10.0 mi NW 17.3 mph - N/A   Clear
5:53 AM 71.1 °F 44.1 °F 38% 29.88 in 10.0 mi NW 16.1 mph - N/A   Clear
6:53 AM 73.0 °F 44.1 °F 35% 29.89 in 10.0 mi NW 17.3 mph 26.5 mph N/A   Clear
7:53 AM 75.9 °F 46.0 °F 35% 29.90 in 10.0 mi NW 21.9 mph 26.5 mph N/A   Clear
8:53 AM 80.1 °F 46.9 °F 31% 29.91 in 10.0 mi NW 18.4 mph 26.5 mph N/A   Clear
9:53 AM 84.0 °F 46.0 °F 26% 29.90 in 10.0 mi NW 24.2 mph 32.2 mph N/A   Clear
10:53 AM 87.1 °F 46.0 °F 24% 29.90 in 10.0 mi NW 23.0 mph 29.9 mph N/A   Clear
11:53 AM 90.0 °F 45.0 °F 21% 29.88 in 10.0 mi NW 23.0 mph 27.6 mph N/A   Clear
12:53 PM 93.0 °F 46.0 °F 20% 29.88 in 10.0 mi NW 18.4 mph - N/A   Clear
1:53 PM 93.0 °F 45.0 °F 19% 29.86 in 10.0 mi NW 24.2 mph 32.2 mph N/A   Clear
2:53 PM 93.9 °F 44.1 °F 18% 29.84 in 10.0 mi NW 24.2 mph - N/A   Clear
3:53 PM 93.9 °F 45.0 °F 18% 29.83 in 10.0 mi NW 27.6 mph 36.8 mph N/A   Clear
4:53 PM 91.0 °F 43.0 °F 19% 29.83 in 10.0 mi NW 29.9 mph 38.0 mph N/A   Clear
5:53 PM 88.0 °F 48.0 °F 25% 29.85 in 10.0 mi NW 32.2 mph 41.4 mph N/A   Clear
6:53 PM 84.0 °F 48.9 °F 29% 29.87 in 10.0 mi NW 28.8 mph 39.1 mph N/A   Overcast
7:53 PM 80.1 °F 50.0 °F 35% 29.88 in 10.0 mi NW 20.7 mph 27.6 mph N/A   Overcast
9:53 PM 73.9 °F 46.0 °F 37% 29.91 in 10.0 mi NW 18.4 mph 28.8 mph N/A   Clear
10:53 PM 71.1 °F 46.9 °F 42% 29.91 in 10.0 mi NNW 11.5 mph 19.6 mph N/A   Clear
11:53 PM 70.0 °F 45.0 °F 41% 29.91 in 10.0 mi NNW 18.4 mph - N/A   Clear